Home > Weather > Minas > Past weeks

Flag for Uruguay Past Weather in Minas, Uruguay — Yesterday and Last 2 Weeks

Now
50 °F

Overcast.


Feels Like: 46 °F
Forecast: 46 / 56 °F
Wind: 9 mph from Southeast

Location: Capitan Corbeta

Current Time: Jun 26, 2016 at 12:36:03 PM

Latest Report: Jun 26, 2016 at 12:00 PM


Visibility: N/A

Pressure: 30.36 "Hg

Humidity: 82%

Dew Point: 45 °F

Location of MinasLocation

Past Weather in Minas — Graph

°F

Minas Temperature Yesterday

Maximum temperature yesterday: 55 °F (at 12:00 AM)
Minimum temperature yesterday: 50 °F (at 6:00 AM)
Average temperature yesterday: 52 °F

High & Low Weather Summary for the Past Weeks

 TemperatureHumidityPressure
High66 °F (Jun 23, 12:00 AM)100% (Jun 15, 2:00 AM)30.48 "Hg (Jun 15, 2:00 AM)
Low34 °F (Jun 21, 8:00 AM)46% (Jun 23, 12:00 AM)30.15 "Hg (Jun 17, 6:00 AM)
Average48 °F85%30.27 "Hg
* Reported Jun 11 11:00 AM — Jun 26 11:00 AM, Minas, Weather by CustomWeather, © 2016

Note: Actual official high and low records may vary slightly from our data, if they occured in-between our weather recording intervals... More about our weather records

Advertising

Minas Weather History for the Previous 24 Hours

Scroll right to see more
 ConditionsComfort  
Time TempWeatherWind HumidityBarometerVisibility
11:00 AM
Sun, Jun 26
50 °FPartly sunny.8 mph82%30.36 "HgN/A
10:00 AM48 °FPartly sunny.9 mph82%30.36 "HgN/A
9:00 AM46 °FPartly sunny.9 mph82%30.33 "HgN/A
8:00 AM46 °FOvercast.10 mph82%30.33 "HgN/A
7:00 AM46 °FMore clouds than sun.10 mph82%30.30 "HgN/A
6:00 AM46 °FMostly cloudy.8 mph82%30.30 "HgN/A
5:00 AM46 °FPartly cloudy.9 mph82%30.30 "HgN/A
4:00 AM48 °FPartly cloudy.9 mph82%30.30 "HgN/A
3:00 AM48 °FOvercast.8 mph82%30.30 "HgN/A
2:00 AM48 °FMostly cloudy.9 mph76%30.30 "HgN/A
1:00 AM48 °FMostly cloudy.10 mph87%30.30 "HgN/A
12:00 AM50 °FPartly cloudy.12 mph82%30.30 "HgN/A
11:00 PM
Sat, Jun 25
50 °FPartly cloudy.14 mph82%30.27 "HgN/A
10:00 PM50 °FPartly cloudy.12 mph88%30.27 "HgN/A
9:00 PM52 °FLow clouds.13 mph88%30.27 "HgN/A
8:00 PM52 °FMostly cloudy.7 mph94%30.27 "HgN/A
7:00 PM52 °FMostly cloudy.13 mph94%30.27 "HgN/A
6:00 PM52 °FLow clouds.15 mph94%30.24 "HgN/A
5:00 PM54 °FLow clouds.15 mph94%30.24 "Hg5 mi
4:00 PM54 °FDrizzle. Fog.12 mph94%30.21 "Hg2 mi
3:00 PM54 °FDrizzle. Fog.9 mph94%30.21 "Hg1 mi
2:46 PM54 °FDrizzle. Low clouds.12 mph94%30.21 "Hg2 mi
2:00 PM54 °FLow clouds.8 mph94%30.21 "Hg5 mi
1:00 PM54 °FFog.5 mph88%30.24 "Hg1 mi
12:00 PM54 °FPartly sunny.No wind94%30.24 "HgN/A
Weather by CustomWeather, © 2016

See weather overviewHow to use our weather pages